カタログに戻る

CENTISPACE-2 S9

運用中ナビゲーションLEO
NORAD 68358·PAYLOAD·🇨🇳 China

打ち上げ Mar 22, 2026 から Yellow Sea Launch Area

Loading…

次のパス (今後24時間)

TLE

最新Source: Space-Track

元期: Sep 13, 2026, 22:12 UTC

1 68358U 26060J   26256.92513709 -.00000134  00000-0  98707-5 0  9996
2 68358  54.9798  51.0985 0007128 261.9976  98.0192 14.25316660 25594

AllMySatでCENTISPACE-2 S9をリアルタイム追跡

Download on the App Store